Overview Statistics Trail Chart Weather Telemetry Raw packets
 

This is the latest recevied weather packets stored in our database for station/object SV9TNF-56. If no packets are shown the sender has not sent any weather packets the latest 10 day(s).

<< 76 77 78 79 80 81 82 >>
Time Temp. Humidity Pressure Rain* Wind** Luminosity Snow
1788114747 25° C 61% 1018.6 hPa 0 mm 12.52 m/s, 99° - -
1788114446 25° C 60% 1018.6 hPa 0 mm 13.86 m/s, 115° - -
1788114146 25° C 61% 1018.6 hPa 0 mm 19.67 m/s, 86° - -
1788113846 25° C 59% 1018.6 hPa 0 mm 18.33 m/s, 110° - -
1788113546 25° C 58% 1018.6 hPa 0 mm 6.26 m/s, 84° - -
1788113246 25° C 58% 1018.6 hPa 0 mm 8.49 m/s, 210° - -
1788112946 25° C 60% 1018.6 hPa 0 mm 3.58 m/s, 121° - -
1788112646 25° C 61% 1018.6 hPa 0 mm 3.13 m/s, 249° - -
1788112346 25° C 61% 1018.6 hPa 0 mm 8.05 m/s, 109° - -
1788112045 25° C 61% 1018.6 hPa 0 mm 4.92 m/s, 38° - -
1788111745 25° C 61% 1018.6 hPa 0 mm 10.28 m/s, 132° - -
1788111446 25° C 63% 1018.6 hPa 0 mm 6.71 m/s, 78° - -
1788111145 25° C 64% 1018.3 hPa 0 mm 14.75 m/s, 132° - -
1788110845 25° C 62% 1018.3 hPa 0 mm 11.18 m/s, 84° - -
1788110545 25° C 62% 1018.6 hPa 0 mm 12.96 m/s, 91° - -
1788110245 25° C 63% 1018.3 hPa 0 mm 2.24 m/s, 115° - -
1788109945 25.56° C 63% 1018.6 hPa 0 mm 13.41 m/s, 114° - -
1788109645 25° C 63% 1018.3 hPa 0 mm 8.49 m/s, 260° - -
1788109345 25° C 63% 1018.3 hPa 0 mm 12.07 m/s, 160° - -
1788109045 25° C 63% 1018.6 hPa 0 mm 5.81 m/s, 96° - -
1788108744 25° C 65% 1018.3 hPa 0 mm 14.75 m/s, 132° - -
1788108444 25° C 65% 1018.3 hPa 0 mm 16.09 m/s, 82° - -
1788108144 25.56° C 63% 1018.3 hPa 0 mm 13.86 m/s, 192° - -
1788107844 25.56° C 61% 1018.3 hPa 0 mm 8.05 m/s, 210° - -
1788107544 25.56° C 60% 1018.3 hPa 0 mm 12.07 m/s, 222° - -

* Rain latest hour (hover to see other rain measurements)
** Current wind speed in m/s (hover to see current wind gust speed)